Cedar Rapids, IA

3:58 PM CST on December 05, 2019 (GMT -0600)
The Eastern Iowa Airport

Weather History for KCID - August, 2019

Change the Weather History Date:

Wednesday, August 14, 2019

  Actual Average Record
Temperature  
Mean Temperature 67 °F 72 °F  
Max Temperature 75 °F 82 °F 99 °F (1936)
Min Temperature 59 °F 61 °F 43 °F (2004)
Degree Days  
Heating Degree Days 0 0  
Month to date heating degree days 0 0  
Since 1 June heating degree days 11 33  
Since 1 July heating degree days 0 4  
Cooling Degree Days 2 7  
Month to date cooling degree days 98 100  
Year to date cooling degree days 600 567  
Since 1 June cooling degree days 572 518  
Growing Degree Days 16 (Base 50)    
Moisture  
Dew Point 63 °F    
Average Humidity 87    
Maximum Humidity 100    
Minimum Humidity 73    
Precipitation  
Precipitation 0.18 in 0.15 in 1.83 in (1908)
Month to date precipitation 1.42 2.00  
Year to date precipitation 24.01 22.82  
Sea Level Pressure  
Sea Level Pressure 29.99 in    
Wind  
Wind Speed 8 mph (NW)    
Max Wind Speed 17 mph    
Max Gust Speed 21 mph    
Visibility 9 miles    
Events Rain    
T = Trace of Precipitation, MM = Missing Value Source: NWS Daily Summary

Daily Weather History Graph

Daily Weather History Graph

Search for Another Location

Airport or City:

Astronomy

Aug. 14, 2019 Rise Set
Actual Time 6:13 AM CDT 8:08 PM CDT
Civil Twilight 5:43 AM CDT 8:38 PM CDT
Nautical Twilight 5:06 AM CDT 9:15 PM CDT
Astronomical Twilight 4:26 AM CDT 9:54 PM CDT
Moon 8:03 PM CDT (8/14) 5:09 AM CDT (8/14)
Length of Visible Light 14h 55m
Length of Day
13h 54m
Waxing Gibbous, 99% of the Moon is Illuminated
Aug 14
Waxing Gibbous
Aug 15
Full
Aug 23
Last Quarter
Aug 30
New
Sep 5
First Quarter

Hourly Weather History & Observations

Time (CDT) Temp. Dew Point Humidity Pressure Visibility Wind Dir Wind Speed Gust Speed Precip Events Conditions
12:52 AM 66.0 °F 63.0 °F 90% 29.95 in 10.0 mi NW 8.1 mph - N/A   Clear
1:52 AM 64.9 °F 63.0 °F 93% 29.95 in 10.0 mi NW 6.9 mph - N/A   Clear
2:52 AM 64.0 °F 62.1 °F 93% 29.96 in 10.0 mi NW 8.1 mph - N/A   Clear
3:52 AM 62.1 °F 60.1 °F 93% 29.96 in 10.0 mi NW 6.9 mph - N/A   Clear
4:52 AM 61.0 °F 60.1 °F 97% 29.96 in 10.0 mi WNW 4.6 mph - N/A   Clear
5:52 AM 60.1 °F 59.0 °F 96% 29.97 in 10.0 mi WNW 6.9 mph - N/A   Clear
6:52 AM 60.1 °F 60.1 °F 100% 29.98 in 10.0 mi WNW 6.9 mph - N/A   Clear
7:52 AM 63.0 °F 61.0 °F 93% 29.98 in 10.0 mi NW 11.5 mph - N/A   Clear
8:43 AM 64.0 °F 62.1 °F 93% 30.00 in 10.0 mi NW 13.8 mph - N/A   Scattered Clouds
8:52 AM 64.0 °F 62.1 °F 93% 29.99 in 10.0 mi NW 13.8 mph - N/A   Mostly Cloudy
9:52 AM 64.9 °F 61.0 °F 87% 30.00 in 10.0 mi NW 12.7 mph - N/A   Overcast
10:05 AM 66.0 °F 61.0 °F 84% 30.01 in 10.0 mi NW 8.1 mph - N/A   Overcast
10:40 AM 66.9 °F 61.0 °F 81% 30.01 in 10.0 mi WNW 11.5 mph - N/A   Overcast
10:52 AM 66.9 °F 61.0 °F 81% 30.01 in 10.0 mi NW 11.5 mph - N/A   Overcast
11:52 AM 68.0 °F 61.0 °F 78% 30.01 in 10.0 mi West 11.5 mph - N/A   Overcast
12:52 PM 72.0 °F 62.1 °F 71% 30.00 in 10.0 mi WNW 12.7 mph - N/A   Mostly Cloudy
1:12 PM 69.1 °F 62.1 °F 78% 30.01 in 10.0 mi WNW 13.8 mph - N/A   Overcast
1:52 PM 69.1 °F 63.0 °F 81% 30.00 in 10.0 mi West 15.0 mph - N/A   Overcast
2:52 PM 70.0 °F 63.0 °F 78% 30.00 in 10.0 mi WNW 11.5 mph - N/A   Overcast
3:52 PM 72.0 °F 62.1 °F 71% 29.99 in 10.0 mi NNW 9.2 mph - N/A   Mostly Cloudy
4:52 PM 72.0 °F 64.0 °F 76% 29.97 in 10.0 mi NW 5.8 mph - N/A   Scattered Clouds
5:52 PM 70.0 °F 64.9 °F 84% 30.00 in 8.0 mi NNW 13.8 mph - 0.00 in Rain Heavy Rain
5:55 PM 68.0 °F 66.0 °F 93% 30.01 in 3.0 mi NNW 16.1 mph - 0.00 in Rain Heavy Rain
6:07 PM 66.0 °F 64.9 °F 96% 30.01 in 1.5 mi NNW 11.5 mph 19.6 mph 0.05 in Rain Heavy Rain
6:38 PM 66.0 °F 66.0 °F 100% 30.00 in 4.0 mi West 3.5 mph - 0.18 in Rain Light Rain
6:52 PM 66.0 °F 64.9 °F 96% 29.99 in 10.0 mi West 3.5 mph - 0.18 in   Overcast
7:52 PM 66.9 °F 66.0 °F 97% 30.01 in 10.0 mi NW 5.8 mph - N/A   Overcast
8:52 PM 66.9 °F 66.0 °F 97% 30.01 in 10.0 mi North 5.8 mph - N/A   Clear
9:52 PM 64.9 °F 64.9 °F 100% 30.02 in 9.0 mi North 3.5 mph - N/A   Clear
10:52 PM 62.1 °F 62.1 °F 100% 30.04 in 8.0 mi NW 3.5 mph - N/A   Clear
11:52 PM 64.0 °F 63.0 °F 96% 30.04 in 10.0 mi Calm Calm - N/A   Clear